VXP9578 MYGF-KLAL

Flight info

Callsign VXP9578
Flight time 0h 47m
Altitude 30000
Route ZFP BR68V MUNRO DCT JAYMC DCT CROWD
Aircraft B738/M-SDE2E3FGHIRWXY/LB1

Departure

Time 2026-04-20 22:55
Airport Grand Bahama International Airport (MYGF)

Arrival

Time 2026-04-20 23:42
Airport Lakeland Linder International Airport (KLAL)
Time Latitude Longitude Altitude Speed Heading
2026-04-20 22:50 26.54819 -78.70267 21 ft 0 kts 269°
2026-04-20 22:50 26.54819 -78.70270 21 ft 1 kts 269°
2026-04-20 22:51 26.54819 -78.70273 21 ft 0 kts 272°
2026-04-20 22:51 26.54825 -78.70276 21 ft 2 kts 353°
2026-04-20 22:51 26.54856 -78.70279 20 ft 8 kts 355°
2026-04-20 22:51 26.54944 -78.70300 19 ft 15 kts 316°
2026-04-20 22:52 26.54966 -78.70409 18 ft 14 kts 275°
2026-04-20 22:52 26.54972 -78.70541 19 ft 20 kts 272°
2026-04-20 22:52 26.54977 -78.70690 21 ft 18 kts 272°
2026-04-20 22:52 26.54980 -78.70825 21 ft 16 kts 271°
2026-04-20 22:53 26.54984 -78.70947 21 ft 15 kts 272°
2026-04-20 22:53 26.55017 -78.71002 21 ft 0 kts 336°
2026-04-20 22:53 26.55035 -78.71006 20 ft 7 kts 356°
2026-04-20 22:54 26.55115 -78.71005 20 ft 12 kts 348°
2026-04-20 22:54 26.55168 -78.70960 21 ft 10 kts 59°
2026-04-20 22:54 26.55225 -78.70846 19 ft 34 kts 60°
2026-04-20 22:54 26.55460 -78.70374 18 ft 100 kts 61°
2026-04-20 22:55 26.55895 -78.69502 21 ft 154 kts 60°
2026-04-20 22:55 26.56416 -78.68447 644 ft 151 kts 59°
2026-04-20 22:55 26.56919 -78.67471 1301 ft 151 kts 53°
2026-04-20 22:55 26.57725 -78.66660 1768 ft 164 kts 25°
2026-04-20 22:56 26.58862 -78.66454 2380 ft 175 kts 355°
2026-04-20 22:56 26.59997 -78.67152 2772 ft 206 kts 320°
2026-04-20 22:56 26.60898 -78.68494 3234 ft 232 kts 301°
2026-04-20 22:56 26.61365 -78.70308 3699 ft 258 kts 272°
2026-04-20 22:57 26.61059 -78.72298 4556 ft 264 kts 255°
2026-04-20 22:57 26.60728 -78.73371 5103 ft 264 kts 252°
2026-04-20 22:57 26.60332 -78.74660 5652 ft 266 kts 255°
2026-04-20 22:57 26.59827 -78.76660 6386 ft 273 kts 259°
2026-04-20 22:58 26.59360 -78.78758 7066 ft 282 kts 257°
2026-04-20 22:58 26.58852 -78.80854 7970 ft 283 kts 257°
2026-04-20 22:58 26.58350 -78.82969 8931 ft 280 kts 257°
2026-04-20 22:58 26.57865 -78.85079 9693 ft 285 kts 257°
2026-04-20 22:59 26.57377 -78.87202 10461 ft 288 kts 258°
2026-04-20 22:59 26.56870 -78.89385 11277 ft 289 kts 258°
2026-04-20 22:59 26.56355 -78.91570 12056 ft 291 kts 258°
2026-04-20 22:59 26.55839 -78.93750 12798 ft 293 kts 257°
2026-04-20 23:00 26.55312 -78.95959 13556 ft 295 kts 258°
2026-04-20 23:00 26.54790 -78.98143 14303 ft 295 kts 258°
2026-04-20 23:00 26.54345 -79.00384 14997 ft 297 kts 264°
2026-04-20 23:00 26.54276 -79.02659 15710 ft 295 kts 276°
2026-04-20 23:01 26.54597 -79.04933 16437 ft 295 kts 282°
2026-04-20 23:01 26.55044 -79.07166 17089 ft 297 kts 283°
2026-04-20 23:01 26.55527 -79.09411 17744 ft 298 kts 283°
2026-04-20 23:01 26.56001 -79.11661 18341 ft 301 kts 283°
2026-04-20 23:02 26.56465 -79.13953 18991 ft 302 kts 282°
2026-04-20 23:02 26.56915 -79.16233 19609 ft 303 kts 282°
2026-04-20 23:02 26.57363 -79.18530 20148 ft 306 kts 282°
2026-04-20 23:02 26.57818 -79.20867 20739 ft 307 kts 282°
2026-04-20 23:03 26.58269 -79.23182 21292 ft 308 kts 282°
2026-04-20 23:03 26.58726 -79.25535 21819 ft 311 kts 282°
2026-04-20 23:03 26.59179 -79.27868 22351 ft 312 kts 282°
2026-04-20 23:03 26.59639 -79.30235 22839 ft 314 kts 282°
2026-04-20 23:04 26.60103 -79.32630 23348 ft 316 kts 282°
2026-04-20 23:04 26.60569 -79.35034 23887 ft 316 kts 281°
2026-04-20 23:04 26.61032 -79.37428 24385 ft 317 kts 282°
2026-04-20 23:04 26.61501 -79.39854 24829 ft 319 kts 281°
2026-04-20 23:05 26.61965 -79.42258 25301 ft 320 kts 281°
2026-04-20 23:05 26.62437 -79.44704 25766 ft 321 kts 281°
2026-04-20 23:05 26.62909 -79.47154 26215 ft 322 kts 281°
2026-04-20 23:05 26.63384 -79.49618 26608 ft 324 kts 281°
2026-04-20 23:06 26.63854 -79.52061 27076 ft 324 kts 281°
2026-04-20 23:06 26.64328 -79.54523 27465 ft 326 kts 281°
2026-04-20 23:06 26.64809 -79.57028 27876 ft 327 kts 281°
2026-04-20 23:06 26.65284 -79.59504 28256 ft 328 kts 281°
2026-04-20 23:07 26.65765 -79.62012 28655 ft 329 kts 281°
2026-04-20 23:07 26.66243 -79.64513 28997 ft 330 kts 281°
2026-04-20 23:07 26.66720 -79.67010 29390 ft 331 kts 280°
2026-04-20 23:07 26.67201 -79.69524 29817 ft 331 kts 281°
2026-04-20 23:08 26.67682 -79.72037 30100 ft 333 kts 281°
2026-04-20 23:08 26.68173 -79.74615 30119 ft 342 kts 281°
2026-04-20 23:08 26.69194 -79.79978 30119 ft 359 kts 281°
2026-04-20 23:09 26.70251 -79.85546 30124 ft 376 kts 281°
2026-04-20 23:09 26.71361 -79.91403 30127 ft 393 kts 281°
2026-04-20 23:10 26.72495 -79.97392 30124 ft 402 kts 281°
2026-04-20 23:10 26.73648 -80.03500 30129 ft 400 kts 281°
2026-04-20 23:11 26.74796 -80.09593 30130 ft 400 kts 281°
2026-04-20 23:11 26.75944 -80.15710 30124 ft 401 kts 281°
2026-04-20 23:12 26.77090 -80.21821 30129 ft 401 kts 281°
2026-04-20 23:12 26.78228 -80.27922 30128 ft 402 kts 281°
2026-04-20 23:13 26.79367 -80.34041 30128 ft 401 kts 281°
2026-04-20 23:13 26.80505 -80.40161 30129 ft 401 kts 281°
2026-04-20 23:14 26.81639 -80.46291 30130 ft 402 kts 281°
2026-04-20 23:14 26.82767 -80.52390 30128 ft 401 kts 281°
2026-04-20 23:15 26.83902 -80.58540 30127 ft 402 kts 281°
2026-04-20 23:15 26.85030 -80.64666 30130 ft 402 kts 281°
2026-04-20 23:16 26.86161 -80.70821 30125 ft 402 kts 281°
2026-04-20 23:16 26.87276 -80.76908 30127 ft 401 kts 280°
2026-04-20 23:17 26.88397 -80.83046 30127 ft 403 kts 281°
2026-04-20 23:17 26.89515 -80.89190 30131 ft 402 kts 281°
2026-04-20 23:18 26.90626 -80.95300 30130 ft 402 kts 280°
2026-04-20 23:18 26.91738 -81.01431 30127 ft 402 kts 281°
2026-04-20 23:19 26.92846 -81.07574 30136 ft 403 kts 281°
2026-04-20 23:19 26.93958 -81.13744 30126 ft 401 kts 281°
2026-04-20 23:20 26.95052 -81.19840 30134 ft 403 kts 281°
2026-04-20 23:20 26.96155 -81.26001 30134 ft 401 kts 281°
2026-04-20 23:21 26.97401 -81.32101 30133 ft 403 kts 286°
2026-04-20 23:21 27.00046 -81.37651 30134 ft 410 kts 304°
2026-04-20 23:22 27.04162 -81.42197 30128 ft 417 kts 315°
2026-04-20 23:22 27.08751 -81.46210 29986 ft 417 kts 317°
2026-04-20 23:23 27.11050 -81.48135 29535 ft 412 kts 317°
2026-04-20 23:23 27.13361 -81.50069 28918 ft 413 kts 317°
2026-04-20 23:23 27.15666 -81.52011 28132 ft 415 kts 317°
2026-04-20 23:23 27.17947 -81.53946 27259 ft 418 kts 318°
2026-04-20 23:24 27.20289 -81.55942 26296 ft 422 kts 318°
2026-04-20 23:24 27.22610 -81.57928 25304 ft 426 kts 318°
2026-04-20 23:24 27.24998 -81.59981 24238 ft 432 kts 319°
2026-04-20 23:24 27.27367 -81.62019 23307 ft 433 kts 319°
2026-04-20 23:25 27.29741 -81.64061 22639 ft 429 kts 319°
2026-04-20 23:25 27.32109 -81.66098 21938 ft 425 kts 319°
2026-04-20 23:25 27.34416 -81.68085 21207 ft 416 kts 319°
2026-04-20 23:25 27.36682 -81.70036 20471 ft 407 kts 319°
2026-04-20 23:26 27.38947 -81.71990 19729 ft 407 kts 319°
2026-04-20 23:26 27.41221 -81.73957 18981 ft 412 kts 320°
2026-04-20 23:26 27.43467 -81.75903 18235 ft 411 kts 320°
2026-04-20 23:26 27.45721 -81.77859 17472 ft 409 kts 320°
2026-04-20 23:27 27.47979 -81.79817 16714 ft 407 kts 320°
2026-04-20 23:27 27.50213 -81.81756 15954 ft 406 kts 321°
2026-04-20 23:27 27.52442 -81.83691 15153 ft 405 kts 321°
2026-04-20 23:27 27.54669 -81.85624 14348 ft 396 kts 322°
2026-04-20 23:28 27.56813 -81.87485 13876 ft 378 kts 322°
2026-04-20 23:28 27.58837 -81.89243 13510 ft 361 kts 322°
2026-04-20 23:28 27.60791 -81.90943 13142 ft 345 kts 322°
2026-04-20 23:28 27.62639 -81.92551 12780 ft 331 kts 322°
2026-04-20 23:29 27.64430 -81.94111 12421 ft 319 kts 322°
2026-04-20 23:29 27.66203 -81.95561 12053 ft 308 kts 328°
2026-04-20 23:29 27.68125 -81.96529 11671 ft 298 kts 345°
2026-04-20 23:29 27.70128 -81.96941 11318 ft 290 kts 352°
2026-04-20 23:30 27.72123 -81.97209 10966 ft 284 kts 353°
2026-04-20 23:30 27.74061 -81.97475 10590 ft 280 kts 352°
2026-04-20 23:30 27.76001 -81.97779 10214 ft 276 kts 351°
2026-04-20 23:30 27.77883 -81.98103 9834 ft 272 kts 351°
2026-04-20 23:31 27.79726 -81.98431 9473 ft 269 kts 351°
2026-04-20 23:31 27.81574 -81.98762 9086 ft 266 kts 352°
2026-04-20 23:31 27.83400 -81.99091 8718 ft 263 kts 352°
2026-04-20 23:31 27.85199 -81.99421 8357 ft 261 kts 349°
2026-04-20 23:32 27.86868 -82.00220 7994 ft 262 kts 324°
2026-04-20 23:32 27.88015 -82.01795 7638 ft 268 kts 297°
2026-04-20 23:32 27.88399 -82.03869 7275 ft 274 kts 272°
2026-04-20 23:32 27.88207 -82.06029 6911 ft 276 kts 264°
2026-04-20 23:33 27.87904 -82.08173 6548 ft 276 kts 263°
2026-04-20 23:33 27.87598 -82.10307 6185 ft 276 kts 263°
2026-04-20 23:33 27.87295 -82.12441 5821 ft 276 kts 264°
2026-04-20 23:33 27.86994 -82.14571 5505 ft 273 kts 263°
2026-04-20 23:34 27.86696 -82.16684 5261 ft 267 kts 264°
2026-04-20 23:34 27.86402 -82.18743 5015 ft 261 kts 264°
2026-04-20 23:34 27.86402 -82.20740 4770 ft 250 kts 288°
2026-04-20 23:34 27.87189 -82.22413 4529 ft 237 kts 319°
2026-04-20 23:35 27.88541 -82.23332 4290 ft 227 kts 347°
2026-04-20 23:35 27.91604 -82.24030 3817 ft 220 kts 354°
2026-04-20 23:35 27.93102 -82.24355 3619 ft 214 kts 354°
2026-04-20 23:36 27.94550 -82.24682 3424 ft 209 kts 354°
2026-04-20 23:36 27.95963 -82.25008 3239 ft 204 kts 354°
2026-04-20 23:36 27.97335 -82.25334 3209 ft 200 kts 354°
2026-04-20 23:36 27.98716 -82.25662 3209 ft 201 kts 354°
2026-04-20 23:37 28.00071 -82.25736 3207 ft 194 kts 18°
2026-04-20 23:37 28.01192 -82.24953 3208 ft 188 kts 53°
2026-04-20 23:37 28.01609 -82.23561 3212 ft 195 kts 88°
2026-04-20 23:37 28.01153 -82.22085 3215 ft 204 kts 119°
2026-04-20 23:38 28.00264 -82.20845 3217 ft 205 kts 124°
2026-04-20 23:38 27.99327 -82.19606 3217 ft 205 kts 122°
2026-04-20 23:38 27.98731 -82.18269 3211 ft 182 kts 94°
2026-04-20 23:38 27.98779 -82.16873 3107 ft 176 kts 80°
2026-04-20 23:39 27.98854 -82.15486 2796 ft 178 kts 85°
2026-04-20 23:39 27.98864 -82.14119 2483 ft 170 kts 85°
2026-04-20 23:39 27.98874 -82.12838 2273 ft 160 kts 84°
2026-04-20 23:39 27.98883 -82.11609 2060 ft 148 kts 84°
2026-04-20 23:40 27.98889 -82.10468 1846 ft 142 kts 83°
2026-04-20 23:40 27.98893 -82.09358 1645 ft 140 kts 84°
2026-04-20 23:40 27.98891 -82.08256 1373 ft 144 kts 85°
2026-04-20 23:40 27.98881 -82.07113 1081 ft 145 kts 86°
2026-04-20 23:41 27.98879 -82.05990 793 ft 141 kts 83°
2026-04-20 23:41 27.98910 -82.04874 462 ft 145 kts 84°
2026-04-20 23:41 27.98921 -82.03741 223 ft 146 kts 86°
2026-04-20 23:41 27.98921 -82.02602 129 ft 136 kts 87°
2026-04-20 23:42 27.98929 -82.01782 136 ft 72 kts 90°
2026-04-20 23:42 27.98929 -82.01371 137 ft 45 kts 88°
2026-04-20 23:42 27.98928 -82.01036 139 ft 40 kts 90°
2026-04-20 23:42 27.98932 -82.00807 139 ft 14 kts 78°
2026-04-20 23:43 27.99009 -82.00767 139 ft 12 kts 359°
2026-04-20 23:43 27.99046 -82.00822 140 ft 11 kts 265°
2026-04-20 23:43 27.99041 -82.00966 139 ft 21 kts 271°
2026-04-20 23:43 27.99040 -82.01133 139 ft 20 kts 269°
2026-04-20 23:44 27.99040 -82.01290 139 ft 19 kts 270°
2026-04-20 23:44 27.99041 -82.01440 137 ft 18 kts 269°
2026-04-20 23:44 27.99085 -82.01527 136 ft 13 kts 346°
2026-04-20 23:44 27.99194 -82.01517 136 ft 17 kts 15°
2026-04-20 23:45 27.99299 -82.01485 139 ft 13 kts 15°
2026-04-20 23:45 27.99379 -82.01477 139 ft 7 kts 359°
2026-04-20 23:45 27.99389 -82.01478 139 ft 0 kts 359°